Miscellaneous Local Product
Issued by NWS North Platte, NE

Home | Current Version | Previous Version | Text Only | Print | Product List | Glossary On
Versions: 1 2 3 4 5 6 7 8 9 10 11 12 13 14 15 16 17 18 19 20 21 22 23 24 25 26 27 28 29 30 31 32 33 34 35 36 37 38 39 40 41 42 43 44 45 46 47 48 49 50
000
AXUS43 KLBF 011510
MISLBF


WESTERN AND NORTH CENTRAL NEBRASKA HOURLY WEATHER ROUNDUP
NATIONAL WEATHER SERVICE NORTH PLATTE NE
1000 AM CDT FRI AUG 01 2014

***STATIONS NOT REPORTING VARIABLES SUCH AS SKY/WEATHER OR
PRESSURE ARE PROVIDED BY THE NEBRASKA DEPARTMENT OF
ROADS...RAWS...AND APRS NETWORKS...AND ARE NOT UNDER
NATIONAL WEATHER SERVICE QUALITY CONTROL***

...OBSERVATIONS IN AND NEAR THE EASTERN PANHANDLE OF NEBRASKA...

CITY           SKY/WX    TMP DP  RH WIND       PRES   REMARKS
PINE RIDGE     SUNNY     74  57  55 CALM      30.15S
CHADRON        SUNNY     76  50  40 W3        30.14F
ALLIANCE       SUNNY     74  48  39 VRB3      30.20S
SIDNEY         SUNNY     74  49  41 NW7       30.24R
WHITECLAY        N/A     80  53  39 CALM        N/A
RUSHVILLE        N/A     79  50  35 SW13        N/A
GORDON           N/A     83  57  40 W10         N/A
CRESCENT LAKE    N/A     76  55  48 S3          N/A
LISCO            N/A     75  51  42 CALM        N/A
BIG SPRINGS      N/A     64  57  78 W3          N/A
$$

...OBSERVATIONS IN NORTH CENTRAL NEBRASKA...

CITY           SKY/WX    TMP DP  RH WIND       PRES   REMARKS
VALENTINE      SUNNY     72  54  53 CALM      30.13R
THEDFORD       SUNNY     75  54  49 CALM      30.15S
AINSWORTH      SUNNY     76  56  49 SE9       30.14R
O`NEILL        SUNNY     75  62  63 E5        30.13S
ORD            SUNNY     71  61  70 NW6       30.13R
BROKEN BOW     SUNNY     73  63  70 S3        30.15R
BROWNLEE         N/A     80  54  39 CALM        N/A
SPRINGVIEW       N/A     75  64  69 CALM        N/A
DUNNING          N/A     78  62  56 S3          N/A
ROSE             N/A     78  65  64 CALM        N/A
NEWPORT          N/A     75  64  69 CALM        N/A
SARGENT          N/A     72  62  72 CALM        N/A
COMSTOCK         N/A     77  68  73 CALM        N/A
CHAMBERS         N/A     79  65  61 E3          N/A
EWING            N/A     73  65  76 CALM        N/A
$$

...OBSERVATIONS IN SOUTHWEST NEBRASKA AND FAR NORTHEAST COLORADO...

CITY           SKY/WX    TMP DP  RH WIND       PRES   REMARKS
WRAY             N/A     75  58  55 W3        30.20R
HOLYOKE        FAIR      77  61  57 W3        30.20R
IMPERIAL       SUNNY     76  57  51 CALM      30.17R
OGALLALA       SUNNY     72  55  56 W3        30.17S
NORTH PLATTE   SUNNY     72  57  59 CALM      30.16R
MCCOOK         SUNNY     73  58  59 CALM      30.15R
LEXINGTON      SUNNY     72  65  76 N3        30.14S
PAXTON           N/A     64  59  83 CALM        N/A
SUTHERLAND       N/A     78  61  55 CALM        N/A
BRADY            N/A     73  59  62 CALM        N/A
GOTHENBURG       N/A     68  56  66 CALM        N/A
CALLAWAY         N/A     65  64  98 CALM        N/A
$$

...SOME WEATHER OBSERVATIONS FROM AROUND THE REGION...

CITY           SKY/WX    TMP DP  RH WIND       PRES   REMARKS
DENVER         MOSUNNY   68  53  58 SW7       30.29R
LARAMIE        SUNNY     58  45  62 CALM      30.38R
CHEYENNE       SUNNY     68  49  50 SW6       30.32R
SCOTTSBLUFF    SUNNY     71  53  52 VRB5      30.21S
RAPID CITY     SUNNY     76  58  53 SE6       30.10F
PIERRE         SUNNY     77  63  61 SE13      30.06S
WINNER         FAIR      80  56  43 SE10      30.10R
SIOUX FALLS    MOSUNNY   71  62  73 CALM      30.11S
OMAHA          PTSUNNY   73  61  65 NE3       30.09R
GRAND ISLAND   SUNNY     71  60  68 N7        30.12R
KANSAS CITY    PTSUNNY   73  63  70 E5        30.09S
WICHITA        MOSUNNY   77  59  53 SW12      30.07S
HAYS           SUNNY     77  61  57 N8        30.11R
LIBERAL        SUNNY     73  59  60 NW9       30.20R
GOODLAND       MOSUNNY   75  57  53 NW7       30.20S
$$



USA.gov is the U.S. government's official web portal to all federal, state and local government web resources and services.